Year,Month,Day,Hour,Minute,Value (Times are PST for temperature in C)
2013,04,23,00,00,9.90
2013,04,23,00,01,9.90
2013,04,23,00,02,9.90
2013,04,23,00,03,9.90
2013,04,23,00,04,9.90
2013,04,23,00,05,9.90
2013,04,23,00,06,9.90
2013,04,23,00,07,9.90
2013,04,23,00,08,9.90
2013,04,23,00,09,9.90
2013,04,23,00,10,9.90
2013,04,23,00,11,9.80
2013,04,23,00,12,9.80
2013,04,23,00,13,9.80
2013,04,23,00,14,9.80
2013,04,23,00,15,9.80
2013,04,23,00,16,9.80
2013,04,23,00,17,9.70
2013,04,23,00,18,9.70
2013,04,23,00,19,9.70
2013,04,23,00,20,9.70
2013,04,23,00,21,9.60
2013,04,23,00,22,9.60
2013,04,23,00,23,9.60
2013,04,23,00,24,9.50
2013,04,23,00,25,9.50
2013,04,23,00,26,9.40
2013,04,23,00,27,9.40
2013,04,23,00,28,9.40
2013,04,23,00,29,9.30
2013,04,23,00,30,9.30
2013,04,23,00,31,9.30
2013,04,23,00,32,9.30
2013,04,23,00,33,9.30
2013,04,23,00,34,9.20
2013,04,23,00,35,9.20
2013,04,23,00,36,9.20
2013,04,23,00,37,9.20
2013,04,23,00,38,9.20
2013,04,23,00,39,9.20
2013,04,23,00,40,9.20
2013,04,23,00,41,9.20
2013,04,23,00,42,9.20
2013,04,23,00,43,9.20
2013,04,23,00,44,9.20
2013,04,23,00,45,9.20
2013,04,23,00,46,9.20
2013,04,23,00,47,9.20
2013,04,23,00,48,9.20
2013,04,23,00,49,9.20
2013,04,23,00,50,9.20
2013,04,23,00,51,9.20
2013,04,23,00,52,9.20
2013,04,23,00,53,9.10
2013,04,23,00,54,9.00
2013,04,23,00,55,9.00
2013,04,23,00,56,8.90
2013,04,23,00,57,8.80
2013,04,23,00,58,8.80
2013,04,23,00,59,8.80
2013,04,23,01,00,8.80
2013,04,23,01,01,8.90
2013,04,23,01,02,8.80
2013,04,23,01,03,8.80
2013,04,23,01,04,8.80
2013,04,23,01,05,8.70
2013,04,23,01,06,8.70
2013,04,23,01,07,8.70
2013,04,23,01,08,8.60
2013,04,23,01,09,8.60
2013,04,23,01,10,8.60
2013,04,23,01,11,8.60
2013,04,23,01,12,8.50
2013,04,23,01,13,8.50
2013,04,23,01,14,8.40
2013,04,23,01,15,8.30
2013,04,23,01,16,8.30
2013,04,23,01,17,8.20
2013,04,23,01,18,8.10
2013,04,23,01,19,8.10
2013,04,23,01,20,8.00
2013,04,23,01,21,7.90
2013,04,23,01,22,7.90
2013,04,23,01,23,7.80
2013,04,23,01,24,7.70
2013,04,23,01,25,7.70
2013,04,23,01,26,7.60
2013,04,23,01,27,7.60
2013,04,23,01,28,7.50
2013,04,23,01,29,7.50
2013,04,23,01,30,7.50
2013,04,23,01,31,7.40
2013,04,23,01,32,7.40
2013,04,23,01,33,7.40
2013,04,23,01,34,7.40
2013,04,23,01,35,7.40
2013,04,23,01,36,7.40
2013,04,23,01,37,7.40
2013,04,23,01,38,7.40
2013,04,23,01,39,7.40
2013,04,23,01,40,7.40
2013,04,23,01,41,7.40
2013,04,23,01,42,7.40
2013,04,23,01,43,7.40
2013,04,23,01,44,7.50
2013,04,23,01,45,7.50
2013,04,23,01,46,7.60
2013,04,23,01,47,7.60
2013,04,23,01,48,7.70
2013,04,23,01,49,7.70
2013,04,23,01,50,7.80
2013,04,23,01,51,7.80
2013,04,23,01,52,7.80
2013,04,23,01,53,7.90
2013,04,23,01,54,7.90
2013,04,23,01,55,7.90
2013,04,23,01,56,7.90
2013,04,23,01,57,7.90
2013,04,23,01,58,7.90
2013,04,23,01,59,8.00
2013,04,23,02,00,8.00
2013,04,23,02,01,8.00
2013,04,23,02,02,8.00
2013,04,23,02,03,8.00
2013,04,23,02,04,8.00
2013,04,23,02,05,8.10
2013,04,23,02,06,8.10
2013,04,23,02,07,8.10
2013,04,23,02,08,8.10
2013,04,23,02,09,8.00
2013,04,23,02,10,8.00
2013,04,23,02,11,8.00
2013,04,23,02,12,8.00
2013,04,23,02,13,8.00
2013,04,23,02,14,8.00
2013,04,23,02,15,8.00
2013,04,23,02,16,7.90
2013,04,23,02,17,7.90
2013,04,23,02,18,7.90
2013,04,23,02,19,7.90
2013,04,23,02,20,7.90
2013,04,23,02,21,7.90
2013,04,23,02,22,7.80
2013,04,23,02,23,7.80
2013,04,23,02,24,7.80
2013,04,23,02,25,7.80
2013,04,23,02,26,7.80
2013,04,23,02,27,7.70
2013,04,23,02,28,7.70
2013,04,23,02,29,7.70
2013,04,23,02,30,7.70
2013,04,23,02,31,7.70
2013,04,23,02,32,7.70
2013,04,23,02,33,7.70
2013,04,23,02,34,7.70
2013,04,23,02,35,7.70
2013,04,23,02,36,7.60
2013,04,23,02,37,7.60
2013,04,23,02,38,7.60
2013,04,23,02,39,7.60
2013,04,23,02,40,7.70
2013,04,23,02,41,7.70
2013,04,23,02,42,7.70
2013,04,23,02,43,7.70
2013,04,23,02,44,7.70
2013,04,23,02,45,7.70
2013,04,23,02,46,7.70
2013,04,23,02,47,7.70
2013,04,23,02,48,7.70
2013,04,23,02,49,7.70
2013,04,23,02,50,7.70
2013,04,23,02,51,7.70
2013,04,23,02,52,7.70
2013,04,23,02,53,7.70
2013,04,23,02,54,7.70
2013,04,23,02,55,7.70
2013,04,23,02,56,7.70
2013,04,23,02,57,7.60
2013,04,23,02,58,7.50
2013,04,23,02,59,7.40
2013,04,23,03,00,7.30
2013,04,23,03,01,7.20
2013,04,23,03,02,7.20
2013,04,23,03,03,7.10
2013,04,23,03,04,7.00
2013,04,23,03,05,7.00
2013,04,23,03,06,6.90
2013,04,23,03,07,6.90
2013,04,23,03,08,6.80
2013,04,23,03,09,6.80
2013,04,23,03,10,6.80
2013,04,23,03,11,6.70
2013,04,23,03,12,6.60
2013,04,23,03,13,6.60
2013,04,23,03,14,6.60
2013,04,23,03,15,6.60
2013,04,23,03,16,6.60
2013,04,23,03,17,6.60
2013,04,23,03,18,6.60
2013,04,23,03,19,6.60
2013,04,23,03,20,6.60
2013,04,23,03,21,6.50
2013,04,23,03,22,6.30
2013,04,23,03,23,6.20
2013,04,23,03,24,6.20
2013,04,23,03,25,6.20
2013,04,23,03,26,6.10
2013,04,23,03,27,6.10
2013,04,23,03,28,6.00
2013,04,23,03,29,5.90
2013,04,23,03,30,5.90
2013,04,23,03,31,5.80
2013,04,23,03,32,5.80
2013,04,23,03,33,5.80
2013,04,23,03,34,5.70
2013,04,23,03,35,5.70
2013,04,23,03,36,5.70
2013,04,23,03,37,5.80
2013,04,23,03,38,5.80
2013,04,23,03,39,5.90
2013,04,23,03,40,5.80
2013,04,23,03,41,5.80
2013,04,23,03,42,5.90
2013,04,23,03,43,5.90
2013,04,23,03,44,5.90
2013,04,23,03,45,6.00
2013,04,23,03,46,6.00
2013,04,23,03,47,6.10
2013,04,23,03,48,6.10
2013,04,23,03,49,6.20
2013,04,23,03,50,6.20
2013,04,23,03,51,6.30
2013,04,23,03,52,6.30
2013,04,23,03,53,6.30
2013,04,23,03,54,6.20
2013,04,23,03,55,6.20
2013,04,23,03,56,6.10
2013,04,23,03,57,6.00
2013,04,23,03,58,6.00
2013,04,23,03,59,5.90
2013,04,23,04,00,5.90
2013,04,23,04,01,5.90
2013,04,23,04,02,5.90
2013,04,23,04,03,5.80
2013,04,23,04,04,5.80
2013,04,23,04,05,5.80
2013,04,23,04,06,5.80
2013,04,23,04,07,5.80
2013,04,23,04,08,5.80
2013,04,23,04,09,5.80
2013,04,23,04,10,5.80
2013,04,23,04,11,5.70
2013,04,23,04,12,5.70
2013,04,23,04,13,5.60
2013,04,23,04,14,5.50
2013,04,23,04,15,5.40
2013,04,23,04,16,5.40
2013,04,23,04,17,5.40
2013,04,23,04,18,5.40
2013,04,23,04,19,5.40
2013,04,23,04,20,5.40
2013,04,23,04,21,5.50
2013,04,23,04,22,5.50
2013,04,23,04,23,5.50
2013,04,23,04,24,5.60
2013,04,23,04,25,5.60
2013,04,23,04,26,5.60
2013,04,23,04,27,5.60
2013,04,23,04,28,5.60
2013,04,23,04,29,5.60
2013,04,23,04,30,5.60
2013,04,23,04,31,5.60
2013,04,23,04,32,5.60
2013,04,23,04,33,5.70
2013,04,23,04,34,5.70
2013,04,23,04,35,5.70
2013,04,23,04,36,5.80
2013,04,23,04,37,5.80
2013,04,23,04,38,5.90
2013,04,23,04,39,6.00
2013,04,23,04,40,6.10
2013,04,23,04,41,6.10
2013,04,23,04,42,6.20
2013,04,23,04,43,6.30
2013,04,23,04,44,6.30
2013,04,23,04,45,6.40
2013,04,23,04,46,6.50
2013,04,23,04,47,6.50
2013,04,23,04,48,6.60
2013,04,23,04,49,6.60
2013,04,23,04,50,6.60
2013,04,23,04,51,6.60
2013,04,23,04,52,6.60
2013,04,23,04,53,6.60
2013,04,23,04,54,6.60
2013,04,23,04,55,6.60
2013,04,23,04,56,6.70
2013,04,23,04,57,6.70
2013,04,23,04,58,6.70
2013,04,23,04,59,6.80
2013,04,23,05,00,6.90
2013,04,23,05,01,6.90
2013,04,23,05,02,7.00
2013,04,23,05,03,7.00
2013,04,23,05,04,7.10
2013,04,23,05,05,7.10
2013,04,23,05,06,7.10
2013,04,23,05,07,7.10
2013,04,23,05,08,7.10
2013,04,23,05,09,7.10
2013,04,23,05,10,7.10
2013,04,23,05,11,7.10
2013,04,23,05,12,7.10
2013,04,23,05,13,7.10
2013,04,23,05,14,7.10
2013,04,23,05,15,7.10
2013,04,23,05,16,7.10
2013,04,23,05,17,7.10
2013,04,23,05,18,7.10
2013,04,23,05,19,7.10
2013,04,23,05,20,7.00
2013,04,23,05,21,7.00
2013,04,23,05,22,7.00
2013,04,23,05,23,7.00
2013,04,23,05,24,7.00
2013,04,23,05,25,7.00
2013,04,23,05,26,6.90
2013,04,23,05,27,6.90
2013,04,23,05,28,6.90
2013,04,23,05,29,6.80
2013,04,23,05,30,6.80
2013,04,23,05,31,6.60
2013,04,23,05,32,6.50
2013,04,23,05,33,6.40
2013,04,23,05,34,6.20
2013,04,23,05,35,6.10
2013,04,23,05,36,6.00
2013,04,23,05,37,5.80
2013,04,23,05,38,5.70
2013,04,23,05,39,5.50
2013,04,23,05,40,5.30
2013,04,23,05,41,5.10
2013,04,23,05,42,4.90
2013,04,23,05,43,4.80
2013,04,23,05,44,4.60
2013,04,23,05,45,4.50
2013,04,23,05,46,4.40
2013,04,23,05,47,4.40
2013,04,23,05,48,4.30
2013,04,23,05,49,4.30
2013,04,23,05,50,4.40
2013,04,23,05,51,4.40
2013,04,23,05,52,4.50
2013,04,23,05,53,4.50
2013,04,23,05,54,4.60
2013,04,23,05,55,4.60
2013,04,23,05,56,4.70
2013,04,23,05,57,4.70
2013,04,23,05,58,4.80
2013,04,23,05,59,4.80
2013,04,23,06,00,4.90
2013,04,23,06,01,5.00
2013,04,23,06,02,5.00
2013,04,23,06,03,5.10
2013,04,23,06,04,5.10
2013,04,23,06,05,5.10
2013,04,23,06,06,5.10
2013,04,23,06,07,5.10
2013,04,23,06,08,5.20
2013,04,23,06,09,5.20
2013,04,23,06,10,5.30
2013,04,23,06,11,5.40
2013,04,23,06,12,5.60
2013,04,23,06,13,5.70
2013,04,23,06,14,5.80
2013,04,23,06,15,5.90
2013,04,23,06,16,6.00
2013,04,23,06,17,6.10
2013,04,23,06,18,6.20
2013,04,23,06,19,6.30
2013,04,23,06,20,6.30
2013,04,23,06,21,6.40
2013,04,23,06,22,6.50
2013,04,23,06,23,6.50
2013,04,23,06,24,6.50
2013,04,23,06,25,6.60
2013,04,23,06,26,6.60
2013,04,23,06,27,6.60
2013,04,23,06,28,6.60
2013,04,23,06,29,6.60
2013,04,23,06,30,6.60
2013,04,23,06,31,6.60
2013,04,23,06,32,6.60
2013,04,23,06,33,6.60
2013,04,23,06,34,6.60
2013,04,23,06,35,6.60
2013,04,23,06,36,6.60
2013,04,23,06,37,6.60
2013,04,23,06,38,6.60
2013,04,23,06,39,6.60
2013,04,23,06,40,6.60
2013,04,23,06,41,6.60
2013,04,23,06,42,6.60
2013,04,23,06,43,6.60
2013,04,23,06,44,6.60
2013,04,23,06,45,6.60
2013,04,23,06,46,6.60
2013,04,23,06,47,6.60
2013,04,23,06,48,6.60
2013,04,23,06,49,6.70
2013,04,23,06,50,6.70
2013,04,23,06,51,6.70
2013,04,23,06,52,6.70
2013,04,23,06,53,6.70
2013,04,23,06,54,6.80
2013,04,23,06,55,6.80
2013,04,23,06,56,6.80
2013,04,23,06,57,6.90
2013,04,23,06,58,6.90
2013,04,23,06,59,6.90
2013,04,23,07,00,6.90
2013,04,23,07,01,6.90
2013,04,23,07,02,7.00
2013,04,23,07,03,7.00
2013,04,23,07,04,7.00
2013,04,23,07,05,7.00
2013,04,23,07,06,7.00
2013,04,23,07,07,7.10
2013,04,23,07,08,7.10
2013,04,23,07,09,7.10
2013,04,23,07,10,7.10
2013,04,23,07,11,7.10
2013,04,23,07,12,7.10
2013,04,23,07,13,7.10
2013,04,23,07,14,7.00
2013,04,23,07,15,7.00
2013,04,23,07,16,6.90
2013,04,23,07,17,6.80
2013,04,23,07,18,6.60
2013,04,23,07,19,6.50
2013,04,23,07,20,6.50
2013,04,23,07,21,6.40
2013,04,23,07,22,6.40
2013,04,23,07,23,6.40
2013,04,23,07,24,6.30
2013,04,23,07,25,6.30
2013,04,23,07,26,6.20
2013,04,23,07,27,6.20
2013,04,23,07,28,6.20
2013,04,23,07,29,6.20
2013,04,23,07,30,6.20
2013,04,23,07,31,6.20
2013,04,23,07,32,6.20
2013,04,23,07,33,6.20
2013,04,23,07,34,6.30
2013,04,23,07,35,6.30
2013,04,23,07,36,6.20
2013,04,23,07,37,6.20
2013,04,23,07,38,6.10
2013,04,23,07,39,6.10
2013,04,23,07,40,6.10
2013,04,23,07,41,6.10
2013,04,23,07,42,6.10
2013,04,23,07,43,6.10
2013,04,23,07,44,6.20
2013,04,23,07,45,6.20
2013,04,23,07,46,6.20
2013,04,23,07,47,6.20
2013,04,23,07,48,6.30
2013,04,23,07,49,6.30
2013,04,23,07,50,6.30
2013,04,23,07,51,6.30
2013,04,23,07,52,6.40
2013,04,23,07,53,6.40
2013,04,23,07,54,6.40
2013,04,23,07,55,6.50
2013,04,23,07,56,6.50
2013,04,23,07,57,6.50
2013,04,23,07,58,6.60
2013,04,23,07,59,6.60
2013,04,23,08,00,6.60
2013,04,23,08,01,6.60
2013,04,23,08,02,6.70
2013,04,23,08,03,6.70
2013,04,23,08,04,6.70
2013,04,23,08,05,6.80
2013,04,23,08,06,6.80
2013,04,23,08,07,6.80
2013,04,23,08,08,6.80
2013,04,23,08,09,6.80
2013,04,23,08,10,6.90
2013,04,23,08,11,6.90
2013,04,23,08,12,7.00
2013,04,23,08,13,7.00
2013,04,23,08,14,7.00
2013,04,23,08,15,7.10
2013,04,23,08,16,7.10
2013,04,23,08,17,7.10
2013,04,23,08,18,7.20
2013,04,23,08,19,7.20
2013,04,23,08,20,7.30
2013,04,23,08,21,7.30
2013,04,23,08,22,7.30
2013,04,23,08,23,7.40
2013,04,23,08,24,7.40
2013,04,23,08,25,7.40
2013,04,23,08,26,7.50
2013,04,23,08,27,7.50
2013,04,23,08,28,7.60
2013,04,23,08,29,7.60
2013,04,23,08,30,7.70
2013,04,23,08,31,7.70
2013,04,23,08,32,7.80
2013,04,23,08,33,7.80
2013,04,23,08,34,7.80
2013,04,23,08,35,7.90
2013,04,23,08,36,7.90
2013,04,23,08,37,7.90
2013,04,23,08,38,8.00
2013,04,23,08,39,8.00
2013,04,23,08,40,8.00
2013,04,23,08,41,8.10
2013,04,23,08,42,8.10
2013,04,23,08,43,8.20
2013,04,23,08,44,8.20
2013,04,23,08,45,8.20
2013,04,23,08,46,8.20
2013,04,23,08,47,8.20
2013,04,23,08,48,8.20
2013,04,23,08,49,8.20
2013,04,23,08,50,8.20
2013,04,23,08,51,8.20
2013,04,23,08,52,8.20
2013,04,23,08,53,8.20
2013,04,23,08,54,8.20
2013,04,23,08,55,8.20
2013,04,23,08,56,8.20
2013,04,23,08,57,8.20
2013,04,23,08,58,8.20
2013,04,23,08,59,8.30
2013,04,23,09,00,8.30
2013,04,23,09,01,8.30
2013,04,23,09,02,8.30
2013,04,23,09,03,8.30
2013,04,23,09,04,8.30
2013,04,23,09,05,8.40
2013,04,23,09,06,8.40
2013,04,23,09,07,8.40
2013,04,23,09,08,8.40
2013,04,23,09,09,8.40
2013,04,23,09,10,8.40
2013,04,23,09,11,8.50
2013,04,23,09,12,8.50
2013,04,23,09,13,8.50
2013,04,23,09,14,8.60
2013,04,23,09,15,8.60
2013,04,23,09,16,8.60
2013,04,23,09,17,8.70
2013,04,23,09,18,8.70
2013,04,23,09,19,8.70
2013,04,23,09,20,8.80
2013,04,23,09,21,8.80
2013,04,23,09,22,8.90
2013,04,23,09,23,9.00
2013,04,23,09,24,9.00
2013,04,23,09,25,9.10
2013,04,23,09,26,9.10
2013,04,23,09,27,9.20
2013,04,23,09,28,9.20
2013,04,23,09,29,9.30
2013,04,23,09,30,9.30
2013,04,23,09,31,9.30
2013,04,23,09,32,9.40
2013,04,23,09,33,9.40
2013,04,23,09,34,9.40
2013,04,23,09,35,9.40
2013,04,23,09,36,9.40
2013,04,23,09,37,9.40
2013,04,23,09,38,9.50
2013,04,23,09,39,9.50
2013,04,23,09,40,9.60
2013,04,23,09,41,9.70
2013,04,23,09,42,9.70
2013,04,23,09,43,9.80
2013,04,23,09,44,9.80
2013,04,23,09,45,9.90
2013,04,23,09,46,9.90
2013,04,23,09,47,10.00
2013,04,23,09,48,10.10
2013,04,23,09,49,10.20
2013,04,23,09,50,10.20
2013,04,23,09,51,10.30
2013,04,23,09,52,10.40
2013,04,23,09,53,10.50
2013,04,23,09,54,10.60
2013,04,23,09,55,10.60
2013,04,23,09,56,10.70
2013,04,23,09,57,10.70
2013,04,23,09,58,10.80
2013,04,23,09,59,10.80
2013,04,23,10,00,10.80
2013,04,23,10,01,10.80
2013,04,23,10,02,10.80
2013,04,23,10,03,10.80
2013,04,23,10,04,10.80
2013,04,23,10,05,10.80
2013,04,23,10,06,10.90
2013,04,23,10,07,10.90
2013,04,23,10,08,10.90
2013,04,23,10,09,10.90
2013,04,23,10,10,10.90
2013,04,23,10,11,11.00
2013,04,23,10,12,11.00
2013,04,23,10,13,11.00
2013,04,23,10,14,11.00
2013,04,23,10,15,11.00
2013,04,23,10,16,10.90
2013,04,23,10,17,10.90
2013,04,23,10,18,10.90
2013,04,23,10,19,10.90
2013,04,23,10,20,10.90
2013,04,23,10,21,10.90
2013,04,23,10,22,10.90
2013,04,23,10,23,10.90
2013,04,23,10,24,10.80
2013,04,23,10,25,10.80
2013,04,23,10,26,10.80
2013,04,23,10,27,10.80
2013,04,23,10,28,10.80
2013,04,23,10,29,10.80
2013,04,23,10,30,10.80
2013,04,23,10,31,10.80
2013,04,23,10,32,10.80
2013,04,23,10,33,10.80
2013,04,23,10,34,10.80
2013,04,23,10,35,10.70
2013,04,23,10,36,10.70
2013,04,23,10,37,10.70
2013,04,23,10,38,10.60
2013,04,23,10,39,10.60
2013,04,23,10,40,10.60
2013,04,23,10,41,10.60
2013,04,23,10,42,10.50
2013,04,23,10,43,10.50
2013,04,23,10,44,10.50
2013,04,23,10,45,10.50
2013,04,23,10,46,10.50
2013,04,23,10,47,10.50
2013,04,23,10,48,10.50
2013,04,23,10,49,10.50
2013,04,23,10,50,10.50
2013,04,23,10,51,10.60
2013,04,23,10,52,10.50
2013,04,23,10,53,10.50
2013,04,23,10,54,10.40
2013,04,23,10,55,10.30
2013,04,23,10,56,10.20
2013,04,23,10,57,10.10
2013,04,23,10,58,10.10
2013,04,23,10,59,10.00
2013,04,23,11,00,10.00
2013,04,23,11,01,9.90
2013,04,23,11,02,9.90
2013,04,23,11,03,9.90
2013,04,23,11,04,9.90
2013,04,23,11,05,9.90
2013,04,23,11,06,9.90
2013,04,23,11,07,9.80
2013,04,23,11,08,9.80
2013,04,23,11,09,9.80
2013,04,23,11,10,9.80
2013,04,23,11,11,9.90
2013,04,23,11,12,9.80
2013,04,23,11,13,9.80
2013,04,23,11,14,9.80
2013,04,23,11,15,9.90
2013,04,23,11,16,9.80
2013,04,23,11,17,9.80
2013,04,23,11,18,9.80
2013,04,23,11,19,9.90
2013,04,23,11,20,9.90
2013,04,23,11,21,9.80
2013,04,23,11,22,9.80
2013,04,23,11,23,9.80
2013,04,23,11,24,9.70
2013,04,23,11,25,9.70
2013,04,23,11,26,9.70
2013,04,23,11,27,9.80
2013,04,23,11,28,9.90
2013,04,23,11,29,10.00
2013,04,23,11,30,10.10
2013,04,23,11,31,10.20
2013,04,23,11,32,10.30
2013,04,23,11,33,10.40
2013,04,23,11,34,10.40
2013,04,23,11,35,10.50
2013,04,23,11,36,10.60
2013,04,23,11,37,10.60
2013,04,23,11,38,10.70
2013,04,23,11,39,10.80
2013,04,23,11,40,10.80
2013,04,23,11,41,10.80
2013,04,23,11,42,10.90
2013,04,23,11,43,10.90
2013,04,23,11,44,11.00
2013,04,23,11,45,11.10
2013,04,23,11,46,11.10
2013,04,23,11,47,11.20
2013,04,23,11,48,11.20
2013,04,23,11,49,11.30
2013,04,23,11,50,11.30
2013,04,23,11,51,11.40
2013,04,23,11,52,11.50
2013,04,23,11,53,11.60
2013,04,23,11,54,11.70
2013,04,23,11,55,11.70
2013,04,23,11,56,11.80
2013,04,23,11,57,11.80
2013,04,23,11,58,11.90
2013,04,23,11,59,12.00
2013,04,23,12,00,12.00
2013,04,23,12,01,12.00
2013,04,23,12,02,12.00
2013,04,23,12,03,12.00
2013,04,23,12,04,12.10
2013,04,23,12,05,12.10
2013,04,23,12,06,12.20
2013,04,23,12,07,12.20
2013,04,23,12,08,12.30
2013,04,23,12,09,12.40
2013,04,23,12,10,12.40
2013,04,23,12,11,12.50
2013,04,23,12,12,12.50
2013,04,23,12,13,12.50
2013,04,23,12,14,12.40
2013,04,23,12,15,12.40
2013,04,23,12,16,12.40
2013,04,23,12,17,12.40
2013,04,23,12,18,12.50
2013,04,23,12,19,12.60
2013,04,23,12,20,12.60
2013,04,23,12,21,12.70
2013,04,23,12,22,12.70
2013,04,23,12,23,12.80
2013,04,23,12,24,12.90
2013,04,23,12,25,12.90
2013,04,23,12,26,12.90
2013,04,23,12,27,12.80
2013,04,23,12,28,12.70
2013,04,23,12,29,12.50
2013,04,23,12,30,12.40
2013,04,23,12,31,12.30
2013,04,23,12,32,12.20
2013,04,23,12,33,12.20
2013,04,23,12,34,12.20
2013,04,23,12,35,12.20
2013,04,23,12,36,12.20
2013,04,23,12,37,12.20
2013,04,23,12,38,12.20
2013,04,23,12,39,12.30
2013,04,23,12,40,12.30
2013,04,23,12,41,12.30
2013,04,23,12,42,12.30
2013,04,23,12,43,12.40
2013,04,23,12,44,12.30
2013,04,23,12,45,12.30
2013,04,23,12,46,12.40
2013,04,23,12,47,12.40
2013,04,23,12,48,12.50
2013,04,23,12,49,12.50
2013,04,23,12,50,12.60
2013,04,23,12,51,12.60
2013,04,23,12,52,12.70
2013,04,23,12,53,12.70
2013,04,23,12,54,12.70
2013,04,23,12,55,12.70
2013,04,23,12,56,12.70
2013,04,23,12,57,12.80
2013,04,23,12,58,12.80
2013,04,23,12,59,12.90
2013,04,23,13,00,13.00
2013,04,23,13,01,13.10
2013,04,23,13,02,13.20
2013,04,23,13,03,13.30
2013,04,23,13,04,13.40
2013,04,23,13,05,13.40
2013,04,23,13,06,13.50
2013,04,23,13,07,13.60
2013,04,23,13,08,13.60
2013,04,23,13,09,13.70
2013,04,23,13,10,13.70
2013,04,23,13,11,13.70
2013,04,23,13,12,13.70
2013,04,23,13,13,13.80
2013,04,23,13,14,13.90
2013,04,23,13,15,13.90
2013,04,23,13,16,13.90
2013,04,23,13,17,14.00
2013,04,23,13,18,14.00
2013,04,23,13,19,14.00
2013,04,23,13,20,14.00
2013,04,23,13,21,14.10
2013,04,23,13,22,14.00
2013,04,23,13,23,14.00
2013,04,23,13,24,14.00
2013,04,23,13,25,14.00
2013,04,23,13,26,14.00
2013,04,23,13,27,14.10
2013,04,23,13,28,14.10
2013,04,23,13,29,14.20
2013,04,23,13,30,14.20
2013,04,23,13,31,14.20
2013,04,23,13,32,14.20
2013,04,23,13,33,14.20
2013,04,23,13,34,14.20
2013,04,23,13,35,14.20
2013,04,23,13,36,14.30
2013,04,23,13,37,14.30
2013,04,23,13,38,14.30
2013,04,23,13,39,14.20
2013,04,23,13,40,14.20
2013,04,23,13,41,14.20
2013,04,23,13,42,14.30
2013,04,23,13,43,14.30
2013,04,23,13,44,14.40
2013,04,23,13,45,14.50
2013,04,23,13,46,14.60
2013,04,23,13,47,14.60
2013,04,23,13,48,14.70
2013,04,23,13,49,14.70
2013,04,23,13,50,14.60
2013,04,23,13,51,14.60
2013,04,23,13,52,14.60
2013,04,23,13,53,14.60
2013,04,23,13,54,14.70
2013,04,23,13,55,14.70
2013,04,23,13,56,14.70
2013,04,23,13,57,14.60
2013,04,23,13,58,14.60
2013,04,23,13,59,14.60
2013,04,23,14,00,14.60
2013,04,23,14,01,14.60
2013,04,23,14,02,14.50
2013,04,23,14,03,14.50
2013,04,23,14,04,14.50
2013,04,23,14,05,14.40
2013,04,23,14,06,14.40
2013,04,23,14,07,14.40
2013,04,23,14,08,14.50
2013,04,23,14,09,14.60
2013,04,23,14,10,14.70
2013,04,23,14,11,14.80
2013,04,23,14,12,14.90
2013,04,23,14,13,15.00
2013,04,23,14,14,15.00
2013,04,23,14,15,15.10
2013,04,23,14,16,15.10
2013,04,23,14,17,15.10
2013,04,23,14,18,15.30
2013,04,23,14,19,15.30
2013,04,23,14,20,15.40
2013,04,23,14,21,15.50
2013,04,23,14,22,15.60
2013,04,23,14,23,15.70
2013,04,23,14,24,15.70
2013,04,23,14,25,15.70
2013,04,23,14,26,15.70
2013,04,23,14,27,15.80
2013,04,23,14,28,15.80
2013,04,23,14,29,15.80
2013,04,23,14,30,15.80
2013,04,23,14,31,15.80
2013,04,23,14,32,15.80
2013,04,23,14,33,15.60
2013,04,23,14,34,15.40
2013,04,23,14,35,15.40
2013,04,23,14,36,15.30
2013,04,23,14,37,15.30
2013,04,23,14,38,15.10
2013,04,23,14,39,14.90
2013,04,23,14,40,14.80
2013,04,23,14,41,14.80
2013,04,23,14,42,14.80
2013,04,23,14,43,14.80
2013,04,23,14,44,14.90
2013,04,23,14,45,14.90
2013,04,23,14,46,15.00
2013,04,23,14,47,15.10
2013,04,23,14,48,15.20
2013,04,23,14,49,15.20
2013,04,23,14,50,15.30
2013,04,23,14,51,15.30
2013,04,23,14,52,15.30
2013,04,23,14,53,15.30
2013,04,23,14,54,15.40
2013,04,23,14,55,15.50
2013,04,23,14,56,15.50
2013,04,23,14,57,15.60
2013,04,23,14,58,15.70
2013,04,23,14,59,15.70
2013,04,23,15,00,15.70
2013,04,23,15,01,15.60
2013,04,23,15,02,15.60
2013,04,23,15,03,15.70
2013,04,23,15,04,15.70
2013,04,23,15,05,15.50
2013,04,23,15,06,15.50
2013,04,23,15,07,15.50
2013,04,23,15,08,15.50
2013,04,23,15,09,15.60
2013,04,23,15,10,15.60
2013,04,23,15,11,15.60
2013,04,23,15,12,15.60
2013,04,23,15,13,15.50
2013,04,23,15,14,15.50
2013,04,23,15,15,15.30
2013,04,23,15,16,15.20
2013,04,23,15,17,15.00
2013,04,23,15,18,14.90
2013,04,23,15,19,14.90
2013,04,23,15,20,14.90
2013,04,23,15,21,15.00
2013,04,23,15,22,15.10
2013,04,23,15,23,15.20
2013,04,23,15,24,15.30
2013,04,23,15,25,15.40
2013,04,23,15,26,15.40
2013,04,23,15,27,15.50
2013,04,23,15,28,15.60
2013,04,23,15,29,15.60
2013,04,23,15,30,15.50
2013,04,23,15,31,15.60
2013,04,23,15,32,15.60
2013,04,23,15,33,15.60
2013,04,23,15,34,15.40
2013,04,23,15,35,15.40
2013,04,23,15,36,15.40
2013,04,23,15,37,15.40
2013,04,23,15,38,15.50
2013,04,23,15,39,15.50
2013,04,23,15,40,15.50
2013,04,23,15,41,15.50
2013,04,23,15,42,15.60
2013,04,23,15,43,15.50
2013,04,23,15,44,15.50
2013,04,23,15,45,15.50
2013,04,23,15,46,15.40
2013,04,23,15,47,15.40
2013,04,23,15,48,15.40
2013,04,23,15,49,15.30
2013,04,23,15,50,15.20
2013,04,23,15,51,15.00
2013,04,23,15,52,14.80
2013,04,23,15,53,14.60
2013,04,23,15,54,14.40
2013,04,23,15,55,14.20
2013,04,23,15,56,14.00
2013,04,23,15,57,13.90
2013,04,23,15,58,13.90
2013,04,23,15,59,13.90
2013,04,23,16,00,13.90
2013,04,23,16,01,13.90
2013,04,23,16,02,13.90
2013,04,23,16,03,13.90
2013,04,23,16,04,14.00
2013,04,23,16,05,14.10
2013,04,23,16,06,14.20
2013,04,23,16,07,14.30
2013,04,23,16,08,14.30
2013,04,23,16,09,14.30
2013,04,23,16,10,14.30
2013,04,23,16,11,14.30
2013,04,23,16,12,14.40
2013,04,23,16,13,14.40
2013,04,23,16,14,14.50
2013,04,23,16,15,14.50
2013,04,23,16,16,14.60
2013,04,23,16,17,14.60
2013,04,23,16,18,14.70
2013,04,23,16,19,14.70
2013,04,23,16,20,14.80
2013,04,23,16,21,14.80
2013,04,23,16,22,14.80
2013,04,23,16,23,14.70
2013,04,23,16,24,14.70
2013,04,23,16,25,14.70
2013,04,23,16,26,14.50
2013,04,23,16,27,14.40
2013,04,23,16,28,14.30
2013,04,23,16,29,14.40
2013,04,23,16,30,14.40
2013,04,23,16,31,14.50
2013,04,23,16,32,14.60
2013,04,23,16,33,14.60
2013,04,23,16,34,14.70
2013,04,23,16,35,14.80
2013,04,23,16,36,14.80
2013,04,23,16,37,14.90
2013,04,23,16,38,15.00
2013,04,23,16,39,15.00
2013,04,23,16,40,14.90
2013,04,23,16,41,14.90
2013,04,23,16,42,14.90
2013,04,23,16,43,14.90
2013,04,23,16,44,14.90
2013,04,23,16,45,14.90
2013,04,23,16,46,14.90
2013,04,23,16,47,14.70
2013,04,23,16,48,14.50
2013,04,23,16,49,14.40
2013,04,23,16,50,14.40
2013,04,23,16,51,14.50
2013,04,23,16,52,14.50
2013,04,23,16,53,14.50
2013,04,23,16,54,14.40
2013,04,23,16,55,14.30
2013,04,23,16,56,14.30
2013,04,23,16,57,14.40
2013,04,23,16,58,14.50
2013,04,23,16,59,14.60
2013,04,23,17,00,14.60
2013,04,23,17,01,14.40
2013,04,23,17,02,14.30
2013,04,23,17,03,14.20
2013,04,23,17,04,14.10
2013,04,23,17,05,14.20
2013,04,23,17,06,14.30
2013,04,23,17,07,14.40
2013,04,23,17,08,14.50
2013,04,23,17,09,14.50
2013,04,23,17,10,14.60
2013,04,23,17,11,14.70
2013,04,23,17,12,14.80
2013,04,23,17,13,14.90
2013,04,23,17,14,15.00
2013,04,23,17,15,15.00
2013,04,23,17,16,15.10
2013,04,23,17,17,15.20
2013,04,23,17,18,15.10
2013,04,23,17,19,15.10
2013,04,23,17,20,15.00
2013,04,23,17,21,14.90
2013,04,23,17,22,14.80
2013,04,23,17,23,14.60
2013,04,23,17,24,14.40
2013,04,23,17,25,14.40
2013,04,23,17,26,14.40
2013,04,23,17,27,14.50
2013,04,23,17,28,14.50
2013,04,23,17,29,14.60
2013,04,23,17,30,14.60
2013,04,23,17,31,14.50
2013,04,23,17,32,14.50
2013,04,23,17,33,14.40
2013,04,23,17,34,14.40
2013,04,23,17,35,14.50
2013,04,23,17,36,14.50
2013,04,23,17,37,14.60
2013,04,23,17,38,14.70
2013,04,23,17,39,14.80
2013,04,23,17,40,14.80
2013,04,23,17,41,14.80
2013,04,23,17,42,14.70
2013,04,23,17,43,14.60
2013,04,23,17,44,14.50
2013,04,23,17,45,14.50
2013,04,23,17,46,14.50